• MPC Preparation (Info)

  • MPEC 2016-O86 : 2014 LQ28

    The following Minor Planet Electronic Circular may be linked-to from your own Web pages, but must not otherwise be redistributed electronically.

    A form allowing access to any MPEC is at the bottom of this page.


    Read MPEC 2016-O85 Read MPEC 2016-O87


    M.P.E.C. 2016-O86                                Issued 2016 July 17, 01:59 UT
    
         The Minor Planet Electronic Circulars contain information on unusual
             minor planets and routine data on comets.  They are published
        on behalf of Division F of the International Astronomical Union by the
              Minor Planet Center, Smithsonian Astrophysical Observatory,
                              Cambridge, MA 02138, U.S.A.
    
                 Prepared using the Tamkin Foundation Computer Network
    
                                  MPC@CFA.HARVARD.EDU
                URL https://www.minorplanetcenter.net/    ISSN 1523-6714
    
                                       2014 LQ28
    
    Observations:
         K14L28Q  C2010 09 15.44489 23 09 07.009-04 14 51.05         22.0 wLEO086F51
         K14L28Q  C2010 09 15.45486 23 09 06.948-04 14 51.23         21.9 wLEO086F51
         K14L28Q  C2010 09 15.46479 23 09 06.893-04 14 51.37         21.7 wLEO086F51
         K14L28Q  C2010 09 16.48423 23 09 02.237-04 15 21.52         21.7 wLEO086F51
         K14L28Q  C2010 09 16.49563 23 09 02.160-04 15 21.72         21.8 wLEO086F51
         K14L28Q  C2010 09 16.50710 23 09 02.112-04 15 22.06         21.7 wLEO086F51
         K14L28Q  C2010 09 16.51865 23 09 02.040-04 15 22.23         21.8 wLEO086F51
         K14L28Q  C2013 08 15.50002 23 28 16.727-02 16 47.92         21.8 wLEO086F51
         K14L28Q  C2013 08 15.51556 23 28 16.669-02 16 48.24         21.6 wLEO086F51
         K14L28Q  C2013 08 15.53115 23 28 16.610-02 16 48.67         21.8 wLEO086F51
         K14L28Q  C2013 08 15.54669 23 28 16.548-02 16 49.02         21.7 wLEO086F51
         K14L28Q  C2013 09 03.42945 23 26 55.670-02 25 21.72         21.7 wLEO086F51
         K14L28Q  C2013 09 03.44433 23 26 55.599-02 25 22.18         21.6 wLEO086F51
         K14L28Q  C2013 09 03.45926 23 26 55.533-02 25 22.57         21.7 wLEO086F51
         K14L28Q  C2013 09 03.47417 23 26 55.466-02 25 23.08         21.6 wLEO086F51
         K14L28Q* C2014 06 03.58782 23 35 22.184-01 34 00.81         22.2 wLEO086F51
         K14L28Q  C2014 06 03.59203 23 35 22.176-01 34 00.65         22.2 wLEO086F51
         K14L28Q  C2014 06 03.59624 23 35 22.220-01 34 01.19         22.3 wLEO086F51
         K14L28Q  C2014 06 03.60044 23 35 22.208-01 34 00.73         22.3 wLEO086F51
         K14L28Q  C2014 06 11.58999 23 35 34.752-01 32 28.59         22.0 wLEO086F51
         K14L28Q  C2014 06 11.59395 23 35 34.756-01 32 28.65         22.1 wLEO086F51
         K14L28Q  C2014 06 11.59789 23 35 34.751-01 32 28.38         22.0 wLEO086F51
         K14L28Q  C2014 07 26.57892 23 35 00.205-01 35 10.77         22.1 wLEO086F51
         K14L28Q  C2014 07 26.58830 23 35 00.186-01 35 11.11         22.1 wLEO086F51
         K14L28Q  C2014 07 26.59769 23 35 00.161-01 35 11.23         21.9 wLEO086F51
         K14L28Q  C2014 07 26.60706 23 35 00.137-01 35 11.41         22.1 wLEO086F51
         K14L28Q  C2014 08 03.53006 23 34 37.165-01 37 31.66         22.2 wLEO086F51
         K14L28Q  C2014 08 03.54139 23 34 37.129-01 37 31.90         22.2 wLEO086F51
         K14L28Q  C2014 08 03.55269 23 34 37.083-01 37 32.03         22.0 wLEO086F51
         K14L28Q  C2014 08 03.56401 23 34 37.032-01 37 32.21         22.0 wLEO086F51
         K14L28Q  C2014 08 04.52082 23 34 33.991-01 37 51.03         21.9 wLEO086F51
         K14L28Q  C2014 08 04.53219 23 34 33.934-01 37 51.11         21.9 wLEO086F51
         K14L28Q  C2014 08 04.54354 23 34 33.916-01 37 51.74         22.0 wLEO086F51
         K14L28Q  C2014 08 04.55486 23 34 33.883-01 37 51.92         22.0 wLEO086F51
         K14L28Q  C2014 08 05.52270 23 34 30.724-01 38 11.44         22.0 wLEO086F51
         K14L28Q  C2014 08 05.53411 23 34 30.687-01 38 11.58         22.0 wLEO086F51
         K14L28Q  C2014 08 05.54549 23 34 30.655-01 38 11.91         21.9 wLEO086F51
         K14L28Q  C2014 08 05.55684 23 34 30.614-01 38 11.91         21.7 wLEO086F51
         K14L28Q  C2014 08 22.47512 23 33 27.084-01 44 50.27         22.0 wLEO086F51
         K14L28Q  C2014 08 22.48737 23 33 27.040-01 44 50.61         22.1 wLEO086F51
         K14L28Q  C2014 08 22.49965 23 33 26.985-01 44 50.80         22.1 wLEO086F51
         K14L28Q  C2014 08 22.51192 23 33 26.923-01 44 51.12         22.0 wLEO086F51
         K14L28Q  C2014 09 12.48500 23 31 53.561-01 54 49.66         21.2 iLEO086F51
         K14L28Q  C2014 09 12.49651 23 31 53.519-01 54 50.00         21.1 iLEO086F51
         K14L28Q  C2014 09 12.50799 23 31 53.468-01 54 50.24         21.2 iLEO086F51
         K14L28Q  C2014 09 17.33688 23 31 31.101-01 57 15.88         21.8 wLEO086F51
         K14L28Q  C2014 09 17.34874 23 31 31.050-01 57 16.00         21.8 wLEO086F51
         K14L28Q  C2014 09 17.36060 23 31 30.990-01 57 16.47         21.8 wLEO086F51
         K14L28Q  C2014 09 17.37247 23 31 30.939-01 57 16.74         21.9 wLEO086F51
         K14L28Q  C2014 11 11.26743 23 28 07.229-02 20 06.51         22.0 wLEO086F51
         K14L28Q  C2014 11 11.27821 23 28 07.195-02 20 06.56         21.9 wLEO086F51
         K14L28Q  C2014 11 11.28899 23 28 07.200-02 20 06.70         21.9 wLEO086F51
         K14L28Q  C2014 11 26.25185 23 27 46.359-02 22 47.34         21.7 wLEO086F51
         K14L28Q  C2014 11 26.26389 23 27 46.357-02 22 47.62         21.8 wLEO086F51
         K14L28Q  C2014 11 26.27590 23 27 46.340-02 22 47.72         21.8 wLEO086F51
         K14L28Q  C2014 11 26.28789 23 27 46.333-02 22 47.84         21.9 wLEO086F51
         K14L28Q  C2014 12 18.21204 23 27 53.633-02 22 43.20         22.2 wLEO086F51
         K14L28Q  C2014 12 18.22413 23 27 53.650-02 22 43.17         22.1 wLEO086F51
         K14L28Q  C2014 12 18.23622 23 27 53.645-02 22 42.82         22.0 wLEO086F51
         K14L28Q  C2014 12 18.24825 23 27 53.672-02 22 42.99         22.0 wLEO086F51
         K14L28Q  C2015 07 25.50595 23 40 39.078-01 00 08.52         22.1 wLEO086F51
         K14L28Q  C2015 07 25.51757 23 40 39.080-01 00 09.06         22.2 wLEO086F51
         K14L28Q  C2015 07 25.53101 23 40 39.007-01 00 08.75         22.3 wLEO086F51
         K14L28Q  C2015 07 25.54359 23 40 38.978-01 00 09.09         22.2 wLEO086F51
    
    Observer details:
    F51 Pan-STARRS 1, Haleakala.  Observers B. Gibson, T. Goggia, N. Primak,
        A. Schultz, M. Willman.  Measurers K. Chambers, S. Chastel, Y.-T. Chen,
        L. Denneau, H. Flewelling, M. Holman, M. Huber, R. Jedicke, M. Lackner,
        E. Lilly, H.-W. Lin, E. Magnier, M. Micheli, M. Payne, P. Veres,
        R. Wainscoat, C. Waters, R. Weryk.  1.8-m Ritchey-Chretien + CCD.
    
    Orbital elements:
    2014 LQ28
    Epoch 2016 July 31.0 TT = JDT 2457600.5                 MPC
    M 337.45666              (2000.0)            P               Q
    n   0.00344357     Peri.  159.14010     +0.92335487     -0.38363146
    a  43.4307024      Node   223.42894     +0.34897747     +0.85548262
    e   0.0921437      Incl.    1.29851     +0.16009533     +0.34781661
    P 286              H    5.7           G   0.15           U   2
    Residuals in seconds of arc
    100915 F51  0.2+  0.1-    140726 F51  0.2-  0.1+    140912 F51  0.2+  0.2+
    100915 F51  0.0   0.0     140726 F51  0.1-  0.1-    140917 F51  0.0   0.2-
    100915 F51  0.1-  0.1+    140726 F51  0.1-  0.0     140917 F51  0.1+  0.0
    100916 F51  0.2+  0.1-    140726 F51  0.1-  0.1-    140917 F51  0.1+  0.1-
    100916 F51  0.1-  0.0     140803 F51  0.1+  0.0     140917 F51  0.1+  0.0
    100916 F51  0.0   0.0     140803 F51  0.1+  0.0     141111 F51  0.1-  0.2-
    100916 F51  0.3-  0.2+    140803 F51  0.1-  0.1+    141111 F51  0.2-  0.1-
    130815 F51  0.0   0.0     140803 F51  0.3-  0.1+    141111 F51  0.2+  0.1-
    130815 F51  0.1+  0.0     140804 F51  0.0   0.2+    141126 F51  0.0   0.1+
    130815 F51  0.2+  0.0     140804 F51  0.3-  0.3+    141126 F51  0.1+  0.1-
    130815 F51  0.2+  0.0     140804 F51  0.0   0.1-    141126 F51  0.0   0.2-
    130903 F51  0.0   0.1-    140804 F51  0.0   0.1-    141126 F51  0.1+  0.2-
    130903 F51  0.0   0.2-    140805 F51  0.0   0.1-    141218 F51  0.1+  0.2-
    130903 F51  0.0   0.1-    140805 F51  0.0   0.0     141218 F51  0.2+  0.2-
    130903 F51  0.1+  0.2-    140805 F51  0.1+  0.1-    141218 F51  0.2-  0.1+
    140603 F51  0.1-  0.3+    140805 F51  0.0   0.1+    141218 F51  0.0   0.2-
    140603 F51  0.4-  0.4+    140822 F51  0.1-  0.0     150725 F51  0.0   0.2+
    140603 F51  0.2+  0.2-    140822 F51  0.0   0.0     150725 F51  0.4+  0.2-
    140603 F51  0.1-  0.2+    140822 F51  0.0   0.1+    150725 F51  0.2-  0.3+
    140611 F51  0.1+  0.0     140822 F51  0.2-  0.1+    150725 F51  0.1-  0.1+
    140611 F51  0.1+  0.1-    140912 F51  0.0   0.1+
    140611 F51  0.1-  0.2+    140912 F51  0.1+  0.1+
    
    Ephemeris:
    2014 LQ28                a,e,i = 43.43, 0.09, 1                  q = 39.429
    Date    TT    R. A. (2000) Decl.     Delta      r     Elong.  Phase     V
    2016 06 17    23 46 41.5 -00 23 18  39.8022 39.8014    89.2     1.5    21.9
    ...
    2016 07 02    23 46 45.8 -00 22 29  39.5500 39.7998   103.5     1.4    21.9
    ...
    2016 07 10    23 46 39.9 -00 22 57  39.4206 39.7989   111.2     1.4    21.9
    ...
    2016 07 16    23 46 31.9 -00 23 42  39.3278 39.7982   116.9     1.3    21.9
    2016 07 17    23 46 30.2 -00 23 51  39.3128 39.7981   117.9     1.3    21.9
    2016 07 18    23 46 28.5 -00 24 01  39.2979 39.7980   118.8     1.3    21.9
    ...
    2016 07 24    23 46 16.6 -00 25 12  39.2115 39.7973   124.6     1.2    21.8
    ...
    2016 08 01    23 45 56.3 -00 27 15  39.1056 39.7965   132.4     1.1    21.8
    ...
    2016 08 16    23 45 06.7 -00 32 25  38.9422 39.7948   147.0     0.8    21.8
    
    A. U. Tomatic                (C) Copyright 2016 MPC           M.P.E.C. 2016-O86
    

    Read MPEC 2016-O85 Read MPEC 2016-O87


    MPEC number:

    Enter an MPEC number in one of the following forms:

    • 1997-B01 (the full form)
    • J97B01 (the packed version of the full form)
    • B01 (the abbreviated form)